Location: Croisilles
(50.1998°N, 2.8793°E)
Time: 13:39:06
(UTC+00:00)

Cosmos 2263 Rocket - Pass Details

Date: 21 January 2021
Orbit: 825 x 847 km, 71.0° (Epoch: 26 February)

Event Time Altitude Azimuth Distance (km) Brightness Sun altitude
Rises 16:57:20 0° 201° (SSW) 3,396 6.1 -5.6°
Reaches altitude 10° 16:59:46 10° 200° (SSW) 2,463 5.3 -5.9°
Maximum altitude 17:05:25 76° 116° (ESE) 875 2.2 -6.7°
Drops below altitude 10° 17:11:05 10° 32° (NNE) 2,469 4.2 -7.6°
Enters shadow 17:12:54 - 31° (NNE) 3,166 4.7 -7.9°
